TimeCDT,TemperatureF,Dew PointF,Humidity,Sea Level PressureIn,VisibilityMPH,Wind Direction,Wind SpeedMPH,Gust SpeedMPH,PrecipitationIn,Events,Conditions,WindDirDegrees,DateUTC
12:51 AM,73.9,64.0,71,30.00,10.0,NNE,17.3,-,N/A,,Mostly Cloudy,20,2012-10-07 05:51:00
1:51 AM,71.6,62.6,73,30.01,10.0,NNE,20.7,26.5,N/A,,Scattered Clouds,20,2012-10-07 06:51:00
2:51 AM,69.1,60.1,73,30.03,10.0,NNE,19.6,-,N/A,,Mostly Cloudy,20,2012-10-07 07:51:00
3:28 AM,68.0,60.8,78,30.03,10.0,NNE,17.3,27.6,N/A,,Overcast,20,2012-10-07 08:28:00
3:51 AM,68.0,60.1,76,30.04,10.0,NNE,17.3,26.5,N/A,,Overcast,20,2012-10-07 08:51:00
4:51 AM,66.9,59.0,76,30.04,10.0,NNE,20.7,27.6,N/A,,Overcast,30,2012-10-07 09:51:00
5:51 AM,66.0,57.9,75,30.05,10.0,NNE,21.9,-,N/A,,Overcast,20,2012-10-07 10:51:00
6:51 AM,64.9,57.0,75,30.06,10.0,NNE,21.9,28.8,N/A,,Overcast,20,2012-10-07 11:51:00
7:51 AM,64.0,55.9,75,30.09,10.0,NNE,23.0,29.9,N/A,,Overcast,20,2012-10-07 12:51:00
8:51 AM,63.0,54.0,72,30.11,10.0,NE,17.3,-,N/A,,Overcast,40,2012-10-07 13:51:00
9:51 AM,63.0,53.1,70,30.13,10.0,NNE,21.9,28.8,N/A,,Overcast,20,2012-10-07 14:51:00
10:51 AM,64.9,53.1,65,30.14,10.0,NNE,17.3,-,N/A,,Overcast,30,2012-10-07 15:51:00
11:51 AM,66.0,54.0,65,30.14,10.0,NNE,18.4,-,N/A,,Overcast,20,2012-10-07 16:51:00
12:51 PM,69.1,54.0,58,30.12,10.0,NE,15.0,-,N/A,,Overcast,40,2012-10-07 17:51:00
1:51 PM,69.1,54.0,58,30.11,10.0,NNE,11.5,-,N/A,,Overcast,20,2012-10-07 18:51:00
2:47 PM,71.6,55.4,57,30.09,10.0,NNE,11.5,-,N/A,,Overcast,30,2012-10-07 19:47:00
2:51 PM,71.6,53.6,53,30.08,10.0,NNE,13.8,-,N/A,,Overcast,20,2012-10-07 19:51:00
3:51 PM,72.0,55.0,55,30.07,10.0,NNE,10.4,-,N/A,,Overcast,30,2012-10-07 20:51:00
4:44 PM,73.4,55.4,53,30.07,10.0,North,9.2,-,N/A,,Overcast,10,2012-10-07 21:44:00
4:51 PM,73.0,55.0,53,30.06,10.0,North,6.9,-,N/A,,Overcast,10,2012-10-07 21:51:00
5:51 PM,72.0,55.0,55,30.06,10.0,NNE,10.4,-,N/A,,Overcast,20,2012-10-07 22:51:00
6:51 PM,70.0,54.0,57,30.07,10.0,North,13.8,-,N/A,,Overcast,10,2012-10-07 23:51:00
7:21 PM,69.8,53.6,56,30.07,10.0,NNE,17.3,-,N/A,,Overcast,20,2012-10-08 00:21:00
7:51 PM,69.1,54.0,58,30.09,10.0,NNE,13.8,-,N/A,,Overcast,20,2012-10-08 00:51:00
8:51 PM,66.9,53.1,61,30.12,10.0,NNE,11.5,-,N/A,,Overcast,20,2012-10-08 01:51:00
9:51 PM,66.0,53.1,63,30.14,10.0,NNE,12.7,-,N/A,,Overcast,20,2012-10-08 02:51:00
10:51 PM,66.0,52.0,60,30.14,10.0,NNE,15.0,-,N/A,,Overcast,30,2012-10-08 03:51:00
11:51 PM,64.9,51.1,61,30.15,10.0,NNE,15.0,-,N/A,,Overcast,30,2012-10-08 04:51:00